Location: Altleiningen
(49.5078°N, 8.0741°E)
Time: 21:51:24
(UTC+00:00)

USA 307 - Pass Details

Date: 03 March 2021
Orbit: 567 x 577 km, 54.0° (Epoch: 13 April)

Event Time Altitude Azimuth Distance (km) Brightness Sun altitude
Rises 18:16:05 0° 271° (W) 2,785 8.7 -10.9°
Reaches altitude 10° 18:18:24 10° 278° (W) 1,885 7.1 -11.3°
Maximum altitude 18:22:33 47° 353° (N) 765 3.6 -11.9°
Enters shadow 18:25:53 15° 64° (ENE) 1,576 4.6 -12.5°
